Location: NovaLab Observatory
(42.8167°N, 71.2500°W)
Time: 15:32:45
(UTC-04:00)

Daily predictions for brighter satellites

Satellite Brightness Start Highest point End
(mag) Time Altitude Azimuth Time Altitude Azimuth Time Altitude Azimuth
Cosmos 2285 Rocket 4.4 20:31:29 10° N 20:37:37 50° ENE 20:43:44 10° SE
Cosmos 2237 Rocket 2.4 20:32:38 10° SSW 20:38:15 83° WNW 20:43:56 10° NNE
OTV 4 3.0 20:40:11 10° SW 20:41:09 11° SSW 20:42:07 10° S
Cosmos 1110 Rocket 4.1 20:36:48 10° NNW 20:42:06 65° ENE 20:47:19 10° SSE
SL-8 R/B 3.8 20:37:21 10° WSW 20:42:12 84° NNW 20:47:04 10° ENE
Envisat 3.7 20:37:50 10° SE 20:42:31 39° ENE 20:47:12 10° N
ERS-1 Rocket 3.0 20:39:15 10° SSE 20:44:15 76° ENE 20:49:17 10° N
Cosmos 2278 Rocket 2.7 20:39:13 10° NNW 20:44:50 64° WSW 20:50:26 10° S
Milstar 3 Cent rocket 4.0 20:40:35 10° WSW 20:46:08 20° SSW 20:50:07 10° SSE
Cosmos 2233 Rocket 4.3 20:39:52 10° N 20:46:09 76° W 20:52:19 10° S
USA 234 3.6 20:41:35 10° ESE 20:48:01 61° NNE 20:54:29 10° NW
Cosmos 1939 Rocket 3.3 20:44:38 10° SSE 20:48:39 48° ENE 20:52:40 10° N
SL-24 R/B - RUBIN 2 4.2 20:45:37 10° SSW 20:50:55 69° ESE 20:57:00 10° NE
Cosmos 1464 Rocket 4.1 20:47:06 10° N 20:53:09 58° E 20:59:12 10° SSE
Cosmos 1726 Rocket 3.6 20:49:25 10° N 20:53:54 84° E 20:58:19 10° S
Cosmos 2369 Rocket 4.2 20:55:56 10° N 20:59:18 16° NE 21:02:39 10° E
Cosmos 2219 Rocket 3.9 20:55:15 10° SW 21:00:30 39° WNW 21:05:46 10° N
PSLV R/B 3.9 20:57:53 11° SE 21:00:40 37° ENE 21:03:34 10° N
Cosmos 2058 Rocket 3.0 20:57:47 10° N 21:02:12 78° E 21:06:33 10° SSE
Lacrosse 5 rocket 1.2 20:59:55 10° SW 21:03:46 88° NW 21:07:52 10° NE
SL-16 R/B 2.2 20:58:52 10° SSW 21:04:29 73° ESE 21:10:09 10° NNE
deb Chang Zheng 4 3.8 21:05:19 10° N 21:09:45 78° WNW 21:14:07 10° SSW
Cosmos 2034 Rocket 4.2 21:04:02 10° N 21:10:21 60° E 21:16:36 10° SSE
Cosmos 1666 2.9 21:06:47 10° N 21:10:39 58° E 21:14:15 11° SSE
ARGOS 4.3 21:06:41 11° ESE 21:11:02 30° ENE 21:15:40 10° N
Cosmos 1602 Rocket 4.1 21:08:27 10° SSE 21:12:39 41° E 21:16:52 10° NNE
Abrixas rocket 2.4 21:09:38 10° WNW 21:13:04 76° NNE 21:15:54 14° ESE
H-2A R/B 3.9 21:10:35 10° E 21:13:16 15° ENE 21:15:59 10° NNE
Meteor 1-23 Rocket 4.2 21:07:40 10° S 21:13:18 84° E 21:19:02 10° N
Okean 2 3.4 21:09:42 10° S 21:13:52 84° E 21:18:05 10° N
UNK 4.5 21:09:03 10° NNE 21:14:14 47° E 21:19:38 10° S
Aureole 2 Rocket 2.9 21:11:02 10° S 21:14:54 47° ESE 21:18:28 10° NNE
Cosmos 1743 4.0 21:16:02 10° NNW 21:19:39 40° W 21:23:15 10° SSW
Cosmos 494 Rocket 3.9 21:14:46 10° SSW 21:19:53 87° ESE 21:25:02 10° NNE
SPOT 1/Viking Rocket 4.1 21:17:06 14° SE 21:21:13 43° ENE 21:26:04 10° N
Cosmos 1812 Rocket 4.2 21:17:59 10° N 21:22:06 38° ENE 21:25:03 17° SE
Cosmos 1461 3.4 21:20:02 10° NNW 21:24:16 50° NE 21:27:10 18° ESE
Cosmos 1603 3.9 21:27:49 10° S 21:33:12 48° ESE 21:38:34 10° NE
MetOp-B 4.1 21:28:40 14° SSE 21:33:18 76° ENE 21:38:40 10° N
CZ-4 R/B 4.4 21:31:09 10° NNE 21:35:50 40° E 21:39:16 17° SSE
H-2A R/B 3.5 21:32:44 10° SSW 21:36:34 34° W 21:40:31 10° NNW
Meteor 2-4 Rocket 4.4 21:32:40 10° SSW 21:38:26 61° WNW 21:44:19 10° N
SPOT 5 3.0 21:38:17 12° S 21:42:18 64° WSW 21:46:39 10° NNW
Cosmos 1626 Rocket 3.6 21:42:10 10° S 21:46:36 86° W 21:51:03 10° N
Cosmos 1302 Rocket 4.3 21:42:19 10° NNW 21:47:31 65° WSW 21:51:34 17° S
APEX 4.1 21:50:00 10° NW 21:53:51 53° WSW 21:57:10 19° S
Meteor 2-12 Rocket 4.4 21:48:25 10° N 21:54:32 72° E 21:58:39 22° SSE
SeaSat 1 3.4 21:53:09 14° S 21:57:04 40° WSW 22:01:43 10° NW
Lacrosse 5 4.4 21:54:02 10° WNW 21:58:00 22° NNW 22:01:59 10° NNE
CZ-4B R/B 3.5 21:53:46 10° NNE 21:58:49 86° WNW 22:04:00 10° SSW
Landsat 7 4.3 21:56:50 26° SE 21:59:08 46° ENE 22:03:41 10° N
ATLAS CENTAUR R/B 4.2 21:55:26 10° W 21:59:41 27° NW 22:03:59 10° NNE
Cosmos 1943 3.9 21:57:45 25° SE 22:00:00 33° ESE 22:05:03 10° NE
Cosmos 1953 Rocket 4.4 22:01:19 28° ESE 22:02:28 33° E 22:06:28 10° NNE
DELTA 2 DEB (DPAF) 4.3 22:02:45 30° SE 22:04:50 63° ENE 22:09:18 10° N
Tsikada Rocket 4.5 22:08:21 10° SSW 22:14:42 63° W 22:21:04 10° N
YAOGAN 6 3.5 22:13:00 24° SSW 22:14:52 46° W 22:18:30 10° NNW
Terra 2.3 22:13:06 31° ESE 22:14:57 46° ENE 22:19:29 10° N
Cosmos 1943 Rocket 3.8 22:12:05 10° N 22:16:26 23° NE 22:19:29 15° E
Atlas Centaur 2 3.8 22:11:38 10° SW 22:18:29 30° SSE 22:20:37 27° SE
CZ-4C R/B 3.4 22:17:57 37° SSE 22:19:39 90° ENE 22:23:50 10° NNW
COSMOS 2455 2.7 22:14:18 10° SSW 22:20:16 74° ESE 22:26:18 10° NNE
ATLAS 3B R/B 3.3 22:18:09 22° S 22:22:42 44° ESE 22:29:45 10° NE
SL-08 RB Rocket 3.8 22:23:10 32° S 22:25:13 72° WSW 22:29:47 10° NNW
USA 81 4.0 22:20:06 10° N 22:25:25 85° W 22:28:04 30° S
Cosmos 407 Rocket 4.0 22:25:05 35° SE 22:26:14 40° ESE 22:31:07 10° NE
IGS 5A 3.7 22:29:33 45° ESE 22:30:28 57° ENE 22:34:33 10° N
Cosmos-2242 4.1 22:27:14 10° NNE 22:31:08 30° ENE 22:31:50 29° E
USA 234 3.9 22:27:51 26° S 22:31:09 44° SW 22:37:22 10° WNW
Cosmos 1758 Rocket 3.5 22:36:07 50° SSE 22:37:02 64° E 22:41:23 10° NNE
Cosmos 1953 3.5 22:37:39 10° NNE 22:41:10 29° ENE 22:41:17 29° ENE
CARTOSAT-1 3.5 22:40:38 52° SSE 22:41:42 90° NNW 22:46:03 10° NNW
SL-24 R/B 4.4 22:38:29 10° N 22:43:21 74° E 22:44:56 44° SSE
Lacrosse 5 rocket 4.1 22:40:37 10° WNW 22:43:36 20° NNW 22:46:42 10° NNE
Cosmos 2369 Rocket 2.1 22:38:31 10° NNW 22:44:14 85° ENE 22:46:13 42° SSE
SAR-Lupe-2 3.7 22:47:10 60° SW 22:47:28 63° WSW 22:51:03 10° NNW
Lacrosse 4 Rocket 2.1 22:50:40 38° ENE 22:50:40 38° ENE 22:53:44 10° NE
Abrixas rocket 4.5 22:47:21 10° W 22:48:53 17° WSW 22:48:53 17° WSW
ARGOS 4.2 22:48:12 22° SSW 22:51:06 39° W 22:56:11 10° NNW
Cosmos 1805 4.4 22:48:21 10° NNE 22:51:49 31° ENE 22:51:49 31° ENE
H-2A R/B 2.0 22:50:30 44° S 22:52:02 74° WSW 22:57:05 10° NNW
Meteor 1-22 Rocket 4.3 22:47:37 10° NNW 22:53:08 74° W 22:55:18 39° S
Cosmos 1825 Rocket 4.5 22:54:02 26° SW 22:56:09 46° WNW 23:00:27 10° N
Nadezhda 4 Rocket 4.4 22:57:40 38° SE 22:59:19 46° E 23:05:20 10° NNE
COSMOS 2406 4.3 23:02:11 28° E 23:02:11 28° E 23:06:43 10° NE
Cosmos 2263 4.1 22:57:34 10° NNW 23:03:13 87° ENE 23:04:45 50° SSE
DMSP B5D2-2 4.1 22:59:41 10° N 23:04:59 78° WNW 23:07:02 39° SSW
Cosmos 1842 Rocket 4.4 23:01:58 10° N 23:06:02 36° ENE 23:06:09 36° E
Cosmos 1346 Rocket 3.7 23:10:07 37° WSW 23:10:57 42° WNW 23:14:43 10° N
Cosmos 1190 Rocket 4.5 23:14:26 28° SW 23:17:08 59° WNW 23:22:25 10° NNE
Cosmos 1758 3.3 23:20:33 10° N 23:24:30 82° N 23:24:30 82° N
Cosmos 2279 Rocket 4.4 23:19:57 10° NNW 23:26:03 56° W 23:28:18 37° SSW
Cosmos 1842 3.9 23:32:29 49° W 23:32:32 49° WNW 23:36:22 10° N
Cosmos 676 Rocket 4.2 23:31:29 45° SW 23:33:03 71° WNW 23:38:24 10° NNE
Meteor 2-5 Rocket 4.2 23:39:51 45° ESE 23:40:28 47° E 23:46:01 10° NNE
Cosmos 1943 4.5 23:39:29 14° WSW 23:43:57 38° WNW 23:49:15 10° N
Cosmos 1023 Rocket 4.3 23:45:10 73° SSE 23:45:31 77° ESE 23:50:49 10° NNE
Cosmos 1932 4.3 23:45:42 57° S 23:46:58 76° ESE 23:53:13 10° NE
Cosmos 1140 Rocket 3.3 23:49:49 76° S 23:50:13 84° ESE 23:55:29 10° NNE
Terra 3.7 23:51:59 19° WSW 23:52:54 20° W 23:56:21 10° NW
